Content
SEND FEEDBACK

Daily
Averages
Monthly
Summary
United States of America

LAKE GEORGE, NEW YORK


Home > North America > United States > New York
Elevation: 321 feet     Latitude: 43 21N     Longitude: 073 37W

WEATHER
 
SELECT A DAY
Number of Records: 212,935;   Date Range: 1/1/95 - 7/26/14
 
SHARE

PRINT THIS DATA

[ ← Previous Day ]
WEATHER ALMANAC - APRIL 8, 2013
[ Next Day → ]
[ °C ]   °F
Weather ElementAverageHighLow
Temperature49.8 °F57.9 °F (3:53 pm)43 °F (6:53 am)
Dewpoint31.9 °F37 °F (10:53 pm)27 °F (5:53 pm)
Humidity51.7 %66 % (1:53 am)31 % (5:53 pm)
Barometer30.05 in30.14 in (10:53 am)29.96 in (11:53 pm)
Wind Speed4.5 mph10.4 mph (2:53 am)
Wind Gust17.3 mph (2:53 am)
Weather ElementAverage
Visibility10 mi
Wind DirectionSSE (144.8 °)

Weather ElementTotal
Precipitation---
Heating Degree Days14.6 (Base 65)
Growing Degree Days0.5 (Base 50)
Averaged from 23 records on April 8, 2013
WEATHER CONDITIONS BREAKOUT
WIND DIRECTION BREAKOUT
WEATHER BY HOUR - APRIL 8, 2013
[ °C ]   °F
Local TimeTemperatureDewpointHumidityBarometerVisibilityWind DirectionWind SpeedGust SpeedPrecipitationEventsConditions
1:53 AM46.9 °F36.0 °F66 %29.98 in10.0 miSSW (210°)8.1 mphPartly Cloudy
2:53 AM48.0 °F35.1 °F61 %29.97 in10.0 miWest (270°)10.4 mph17.3 mphClear
3:53 AM46.9 °F34.0 °F61 %30.00 in10.0 miCalmOvercast
4:53 AM44.1 °F32.0 °F63 %30.01 in10.0 miWNW (290°)6.9 mphScattered Clouds
5:53 AM44.1 °F30.9 °F60 %30.04 in10.0 miNNW (340°)8.1 mphMostly Cloudy
6:53 AM43.0 °F30.9 °F62 %30.06 in10.0 miNNW (340°)3.5 mphOvercast
7:53 AM44.1 °F30.9 °F60 %30.10 in10.0 miNorth (350°)6.9 mphOvercast
8:53 AM45.0 °F30.9 °F58 %30.11 in10.0 miNW (320°)10.4 mphOvercast
9:53 AM46.9 °F30.9 °F54 %30.12 in10.0 miWest (280°)6.9 mphOvercast
10:53 AM48.9 °F30.9 °F50 %30.14 in10.0 miNorth (360°)8.1 mphOvercast
11:53 AM50.0 °F30.9 °F48 %30.12 in10.0 miVariable5.8 mphClear
12:53 PM53.1 °F30.9 °F43 %30.11 in10.0 miEast (90°)9.2 mphClear
1:53 PM55.0 °F32.0 °F42 %30.10 in10.0 miNorth (10°)3.5 mphClear
2:53 PM55.9 °F30.9 °F39 %30.08 in10.0 miVariable3.5 mphClear
3:53 PM57.9 °F32.0 °F37 %30.06 in10.0 miVariable3.5 mphClear
4:53 PM57.9 °F30.0 °F35 %30.03 in10.0 miESE (120°)5.8 mphClear
5:53 PM57.9 °F27.0 °F31 %30.04 in10.0 miCalmClear
6:53 PM57.0 °F28.9 °F34 %30.04 in10.0 miCalmClear
7:53 PM48.9 °F30.9 °F50 %30.04 in10.0 miCalmClear
8:53 PM50.0 °F30.9 °F48 %30.04 in10.0 miCalmPartly Cloudy
9:53 PM48.9 °F35.1 °F59 %30.02 in10.0 miCalmMostly Cloudy
10:53 PM48.0 °F37.0 °F66 %29.99 in10.0 miNorth (350°)3.5 mph0.00 inRainLight Rain
11:53 PM48.0 °F35.1 °F61 %29.96 in10.0 miCalm0.00 inRainLight Rain
Hourly data recorded from KGFL, located miles away from Lake George, New York







STORIES FROM OUR PARTNERS